{"data":{"norad_id":36108,"epoch":"2026-05-25T03:17:33.603072Z","epoch_age_seconds":63167,"freshness":"FRESH","line1":"1 36108U 09068A   26145.13719448  .00000062  00000+0  00000+0 0  9992","line2":"2 36108   0.3544  85.6931 0000057 311.9686 124.4751  1.00270147 46369","mean_motion":1.00270147,"eccentricity":5.7e-6,"inclination_deg":0.3544,"raan_deg":85.6931,"arg_perigee_deg":311.9686,"mean_anomaly_deg":124.4751,"bstar":0,"rev_number":4636,"period_min":1436.1203639205,"perigee_km":35786.813816713,"apogee_km":35787.294499892,"semimajor_km":42165.191158303,"source":"CELESTRAK","updated_at":"2026-05-25T13:38:13.869011Z"}}